Location: Lombard
(41.8800°N, 88.0080°W)
Time: 04:24:28
(UTC-05:00)

Vanguard 2 Rocket - Pass Details

Date: 22 February 2024
Orbit: 555 x 3307 km, 32.9° (Epoch: 12 April)

Event Time Altitude Azimuth Distance (km) Brightness Sun altitude
Rises 16:59:49 0° 259° (W) 5,180 13.2 5.2°
Reaches altitude 10° 17:02:44 10° 256° (WSW) 4,490 13.3 4.7°
Maximum altitude 17:16:05 62° 180° (S) 3,066 9.8 2.3°
Drops below altitude 10° 17:35:31 10° 106° (ESE) 6,261 10.6 -1.2°
Sets 17:40:28 0° 104° (ESE) 7,254 10.9 -2.1°
